This is the latest recevied weather packets stored in our database for station/object IW2GOB-3. If no packets are shown the sender has not sent any weather packets the latest 1 day(s).
| Time | Temp. | Humidity | Pressure | Rain* | Wind** | Luminosity | Snow |
|---|---|---|---|---|---|---|---|
| 1777982123 | 16.67° C | 80% | 1012 hPa | 0 mm | 2.24 m/s, 67° | - | - |
| 1777981523 | 16.67° C | 80% | 1012 hPa | 0 mm | 0.89 m/s, 98° | - | - |
| 1777980923 | 16.11° C | 81% | 1012 hPa | 0 mm | 2.24 m/s, 149° | - | - |
| 1777980323 | 16.11° C | 82% | 1012 hPa | 0 mm | 0.45 m/s, 83° | - | - |
| 1777979723 | 15.56° C | 83% | 1012.2 hPa | 0 mm | 1.34 m/s, 64° | - | - |
| 1777979123 | 15.56° C | 84% | 1012.3 hPa | 0 mm | 2.24 m/s, 78° | - | - |
| 1777978523 | 15.56° C | 85% | 1012.5 hPa | 0 mm | 1.34 m/s, 120° | - | - |
| 1777977923 | 15.56° C | 86% | 1012.4 hPa | 0 mm | 1.34 m/s, 86° | - | - |
| 1777977323 | 15° C | 87% | 1012.4 hPa | 0 mm | 1.34 m/s, 121° | - | - |
| 1777976723 | 15° C | 88% | 1012.5 hPa | 0 mm | 0.89 m/s, 105° | - | - |
| 1777976123 | 15° C | 89% | 1012.4 hPa | 0 mm | 0.45 m/s, 94° | - | - |
| 1777975523 | 14.44° C | 89% | 1012.4 hPa | 0 mm | 0.45 m/s, 120° | - | - |
| 1777974923 | 14.44° C | 89% | 1012.5 hPa | 0 mm | 0.45 m/s, 92° | - | - |
| 1777974323 | 14.44° C | 89% | 1012.4 hPa | 0 mm | 0 m/s | - | - |
| 1777973723 | 14.44° C | 90% | 1012.4 hPa | 0 mm | 0 m/s | - | - |
| 1777973123 | 14.44° C | 90% | 1012.3 hPa | 0 mm | 0 m/s | - | - |
| 1777972523 | 14.44° C | 90% | 1012.4 hPa | 0 mm | 0.45 m/s, 77° | - | - |
| 1777971923 | 13.89° C | 91% | 1012.2 hPa | 0.25 mm | 0.45 m/s, 24° | - | - |
| 1777971323 | 13.89° C | 91% | 1012.2 hPa | 0.25 mm | 0.45 m/s, 322° | - | - |
| 1777970723 | 13.89° C | 91% | 1012 hPa | 0.76 mm | 0.45 m/s, 18° | - | - |
| 1777970122 | 13.89° C | 91% | 1012.1 hPa | 0.76 mm | 0 m/s | - | - |
| 1777969522 | 13.89° C | 92% | 1012.2 hPa | 1.02 mm | 0.45 m/s, 297° | - | - |
| 1777968922 | 13.33° C | 92% | 1012.2 hPa | 2.03 mm | 0 m/s | - | - |
| 1777968322 | 13.33° C | 91% | 1012.1 hPa | 2.03 mm | 0.45 m/s, 285° | - | - |
| 1777967722 | 13.33° C | 91% | 1012.2 hPa | 2.29 mm | 0.45 m/s, 309° | - | - |
* Rain latest hour (hover to see other rain measurements)
** Current wind speed in m/s (hover to see current wind gust speed)